Regional Weather Roundup
Issued by NWS

Home | Current Version | Previous Version | Graphics & Text | Print | Product List | Glossary On
Versions: 1 2 3 4 5 6 7 8 9 10 11 12 13 14 15 16 17 18 19 20 21 22 23 24 25 26 27 28 29 30 31 32 33 34 35 36 37 38 39 40 41 42 43 44 45 46 47 48 49 50
000
ASUS43 KOAX 031502
RWRNE

WEATHER ROUNDUP FOR NEBRASKA
NATIONAL WEATHER SERVICE OMAHA NE
1000 AM CDT FRI JUL 03 2015

NOTES: SATELLITE DATA IS BEING USED TO AUGMENT CLOUD COVER ABOVE
       12000 FEET.
       "FAIR" INDICATES FEW OR NO CLOUDS BELOW 12,000 FEET WITH NO
       SIGNIFICANT WEATHER AND/OR OBSTRUCTIONS TO VISIBILITY.

  * THESE STATIONS DO NOT REPORT WEATHER SUCH AS RAIN...SNOW OR FOG.

NEZ001>004-019>022-054>056-031600-
NEBRASKA PANHANDLE

CITY           SKY/WX    TMP DP  RH WIND       PRES   REMARKS
SCOTTSBLUFF    SUNNY     73  57  57 CALM      30.13S
ALLIANCE       SUNNY     72  60  66 CALM      30.13S
CHADRON        SUNNY     70  60  70 CALM      30.10F
KIMBALL          N/A    N/A N/A N/A MISG        N/A
SIDNEY         PTSUNNY   72  60  66 VRB5      30.17R
$$

NEZ057>060-069>072-079>082-031600-
SOUTHWEST NEBRASKA

CITY           SKY/WX    TMP DP  RH WIND       PRES   REMARKS
NORTH PLATTE   SUNNY     70  61  73 CALM      30.09S
IMPERIAL       SUNNY     75  59  57 N3        30.10S
LEXINGTON      CLOUDY    65  64  96 CALM      30.09R
MCCOOK         PTSUNNY   69  63  81 E7        30.09R HAZE
$$

NEZ005>010-023>029-035>040-094-031600-
NORTH CENTRAL NEBRASKA

CITY           SKY/WX    TMP DP  RH WIND       PRES   REMARKS
VALENTINE      SUNNY     73  62  68 CALM      30.06S
AINSWORTH      SUNNY     71  63  74 N3        30.07S
BROKEN BOW     SUNNY     72  63  73 VRB3      30.07S
O`NEILL        CLOUDY    65  64  99 CALM      30.06S FOG
ORD            PTSUNNY   69  61  75 CALM      30.05S
$$

NEZ041-046>049-061>064-073>077-083>087-031600-
SOUTH CENTRAL NEBRASKA

CITY           SKY/WX    TMP DP  RH WIND       PRES   REMARKS
GRAND ISLAND   CLOUDY    67  61  81 N7        30.06S HAZE
AURORA         CLOUDY    67  65  94 NE5       30.05S FOG
HASTINGS       CLOUDY    68  62  81 NE6       30.06R
KEARNEY *      CLOUDY    66  59  77 N3        30.07S
$$

NEZ011>018-030>034-042>045-031600-
NORTHEAST NEBRASKA

CITY           SKY/WX    TMP DP  RH WIND       PRES   REMARKS
NORFOLK        CLOUDY    66  63  90 W3        30.05R FOG
COLUMBUS *     CLOUDY    64  57  77 CALM      30.05S
FREMONT        SUNNY     68  56  65 CALM      30.04R
TEKAMAH        SUNNY     67  57  70 CALM      30.02S
$$

NEZ050>053-065>068-078-088>093-031600-
SOUTHEAST NEBRASKA

CITY           SKY/WX    TMP DP  RH WIND       PRES   REMARKS
LINCOLN        SUNNY     71  59  65 NE7       30.03S
OMAHA EPPLEY   SUNNY     67  59  75 NW6       30.02S
FALLS CITY     SUNNY     70  60  70 NE5       29.98S
PLATTSMOUTH    SUNNY     67  56  67 CALM      30.02S
$$

NEZ044-045-051>053-067-031600-
OMAHA AREA

CITY           SKY/WX    TMP DP  RH WIND       PRES   REMARKS
OMAHA EPPLEY   SUNNY     67  59  75 NW6       30.02S
FREMONT        SUNNY     68  56  65 CALM      30.04R
MILLARD        SUNNY     68  56  64 CALM      30.02S
OFFUTT AFB     SUNNY     68  57  68 NE2       30.01S
PLATTSMOUTH    SUNNY     67  56  67 CALM      30.02S
$$


USA.gov is the U.S. government's official web portal to all federal, state and local government web resources and services.